| time (UTC) | temp C | wind direction | speed KPH | gust KPH | rain 1hr cm | rain 24hr cm | rain mn cm | humidity % | barometer mb |
| 20260506120024 | 10 | 5 | 0.0 | 0.0 | 0.00 | 0.00 | 0.00 | 95 | 1015.9 |
| 20260506115526 | 10 | 5 | 0.0 | 0.0 | 0.00 | 0.00 | 0.00 | 95 | 1015.8 |
| 20260506115023 | 10 | 5 | 0.0 | 0.0 | 0.00 | 0.00 | 0.00 | 94 | 1015.8 |
| 20260506114528 | 10 | 5 | 0.0 | 0.0 | 0.00 | 0.00 | 0.00 | 94 | 1015.8 |
| 20260506114023 | 10 | 5 | 0.0 | 0.0 | 0.00 | 0.00 | 0.00 | 94 | 1015.8 |
| 20260506113523 | 10 | 5 | 0.0 | 0.0 | 0.00 | 0.00 | 0.00 | 94 | 1015.8 |
| 20260506113035 | 10 | 5 | 0.0 | 0.0 | 0.00 | 0.00 | 0.00 | 94 | 1015.8 |
| 20260506112522 | 10 | 5 | 0.0 | 0.0 | 0.00 | 0.00 | 0.00 | 94 | 1015.8 |
| 20260506112022 | 10 | 5 | 0.0 | 0.0 | 0.00 | 0.00 | 0.00 | 94 | 1015.8 |
| 20260506111522 | 10 | 5 | 0.0 | 0.0 | 0.00 | 0.00 | 0.00 | 94 | 1015.8 |
| 20260506111023 | 10 | 5 | 0.0 | 0.0 | 0.00 | 0.00 | 0.00 | 95 | 1015.7 |
| 20260506110523 | 10 | 5 | 0.0 | 0.0 | 0.00 | 0.00 | 0.00 | 94 | 1015.7 |
| 20260506110022 | 10 | 5 | 0.0 | 0.0 | 0.00 | 0.00 | 0.00 | 94 | 1015.7 |
| 20260506105521 | 10 | 5 | 0.0 | 0.0 | 0.00 | 0.00 | 0.00 | 94 | 1015.7 |
| 20260506105022 | 10 | 5 | 0.0 | 0.0 | 0.00 | 0.00 | 0.00 | 94 | 1015.7 |
| 20260506104524 | 10 | 5 | 0.0 | 0.0 | 0.00 | 0.00 | 0.00 | 94 | 1015.7 |
| 20260506104020 | 10 | 5 | 0.0 | 0.0 | 0.00 | 0.00 | 0.00 | 94 | 1015.7 |
| 20260506103521 | 10 | 5 | 0.0 | 0.0 | 0.00 | 0.00 | 0.00 | 94 | 1015.7 |
| 20260506103025 | 10 | 5 | 0.0 | 0.0 | 0.00 | 0.00 | 0.00 | 94 | 1015.7 |
| 20260506102520 | 10 | 5 | 0.0 | 0.0 | 0.00 | 0.00 | 0.00 | 94 | 1015.7 |
| 20260506102020 | 10 | 5 | 0.0 | 0.0 | 0.00 | 0.00 | 0.00 | 94 | 1015.7 |
| 20260506101520 | 10 | 5 | 0.0 | 0.0 | 0.00 | 0.00 | 0.00 | 94 | 1015.7 |
| 20260506101019 | 10 | 5 | 0.0 | 0.0 | 0.00 | 0.00 | 0.00 | 94 | 1015.6 |
| 20260506100519 | 10 | 5 | 0.0 | 0.0 | 0.00 | 0.00 | 0.00 | 94 | 1015.6 |
| 20260506100019 | 10 | 5 | 0.0 | 0.0 | 0.00 | 0.00 | 0.00 | 94 | 1015.6 |
| 20260506095518 | 10 | 5 | 0.0 | 0.0 | 0.00 | 0.00 | 0.00 | 94 | 1015.7 |
| 20260506095018 | 10 | 5 | 0.0 | 0.0 | 0.00 | 0.00 | 0.00 | 94 | 1015.7 |
| 20260506094517 | 9 | 5 | 0.0 | 0.0 | 0.00 | 0.00 | 0.00 | 94 | 1015.7 |
| 20260506094016 | 10 | 5 | 0.0 | 0.0 | 0.00 | 0.00 | 0.00 | 94 | 1015.7 |
| 20260506093516 | 10 | 5 | 0.0 | 0.0 | 0.00 | 0.00 | 0.00 | 94 | 1015.7 |
| 20260506093015 | 10 | 257 | 0.0 | 0.0 | 0.00 | 0.00 | 0.00 | 94 | 1015.7 |
| 20260506092515 | 10 | 257 | 0.0 | 0.0 | 0.00 | 0.00 | 0.00 | 94 | 1015.7 |
| 20260506092014 | 10 | 257 | 0.0 | 0.0 | 0.00 | 0.00 | 0.00 | 94 | 1015.7 |
| 20260506091513 | 10 | 257 | 0.0 | 0.0 | 0.00 | 0.00 | 0.00 | 94 | 1015.7 |
| 20260506091013 | 10 | 257 | 0.0 | 0.0 | 0.00 | 0.00 | 0.00 | 94 | 1015.8 |
| 20260506090511 | 10 | 257 | 0.0 | 0.0 | 0.00 | 0.00 | 0.00 | 94 | 1015.8 |
| 20260506090015 | 11 | 257 | 0.0 | 0.0 | 0.00 | 0.00 | 0.00 | 94 | 1015.8 |
| 20260506085509 | 11 | 257 | 0.0 | 0.0 | 0.00 | 0.00 | 0.00 | 94 | 1016.0 |
| 20260506085011 | 11 | 257 | 0.0 | 0.0 | 0.00 | 0.00 | 0.00 | 94 | 1016.0 |
| 20260506084509 | 11 | 257 | 0.0 | 0.0 | 0.00 | 0.00 | 0.00 | 94 | 1016.0 |
| 20260506084012 | 11 | 165 | 0.0 | 0.0 | 0.00 | 0.00 | 0.00 | 94 | 1016.0 |
| 20260506083509 | 11 | 165 | 0.0 | 0.0 | 0.00 | 0.00 | 0.00 | 94 | 1016.0 |
| 20260506083008 | 11 | 165 | 0.0 | 0.0 | 0.00 | 0.00 | 0.00 | 94 | 1016.0 |
| 20260506082508 | 11 | 186 | 0.0 | 0.0 | 0.00 | 0.00 | 0.00 | 94 | 1016.1 |
| 20260506082010 | 11 | 186 | 1.6 | 0.0 | 0.00 | 0.00 | 0.00 | 94 | 1016.1 |
| 20260506081509 | 11 | 184 | 1.6 | 0.0 | 0.00 | 0.00 | 0.00 | 94 | 1016.1 |
| 20260506081013 | 11 | 167 | 1.6 | 0.0 | 0.00 | 0.00 | 0.00 | 94 | 1016.2 |
| 20260506080508 | 11 | 184 | 1.6 | 0.0 | 0.00 | 0.00 | 0.00 | 94 | 1016.2 |
| 20260506073505 | 11 | 172 | 0.0 | 0.0 | 0.00 | 0.00 | 0.00 | 94 | 1016.2 |
| 20260506073005 | 11 | 172 | 1.6 | 0.0 | 0.00 | 0.00 | 0.00 | 94 | 1016.2 |
| 20260506072505 | 11 | 172 | 1.6 | 0.0 | 0.00 | 0.00 | 0.00 | 94 | 1016.1 |
| 20260506072005 | 11 | 172 | 1.6 | 0.0 | 0.00 | 0.00 | 0.00 | 94 | 1016.1 |
| 20260506071505 | 11 | 170 | 1.6 | 0.0 | 0.00 | 0.00 | 0.00 | 94 | 1016.1 |
| 20260506071006 | 11 | 174 | 1.6 | 0.0 | 0.00 | 0.00 | 0.00 | 94 | 1016.0 |
| 20260506070503 | 11 | 182 | 1.6 | 0.0 | 0.00 | 0.00 | 0.00 | 94 | 1016.0 |
| 20260506062502 | 11 | 171 | 3.2 | 0.0 | 0.00 | 0.00 | 0.00 | 94 | 1015.7 |
| 20260506062002 | 11 | 360 | 1.6 | 0.0 | 0.00 | 0.00 | 0.00 | 94 | 1015.7 |
| 20260506061501 | 11 | 167 | 1.6 | 0.0 | 0.00 | 0.00 | 0.00 | 93 | 1015.7 |
| 20260506061003 | 11 | 166 | 3.2 | 0.0 | 0.00 | 0.00 | 0.00 | 93 | 1015.7 |
| 20260506060501 | 11 | 169 | 3.2 | 0.0 | 0.00 | 0.00 | 0.00 | 93 | 1015.7 |
| 20260506051058 | 11 | 166 | 3.2 | 0.0 | 0.00 | 0.00 | 0.00 | 93 | 1015.2 |
| 20260506050558 | 11 | 167 | 3.2 | 0.0 | 0.00 | 0.00 | 0.00 | 93 | 1015.2 |
| 20260506050106 | 11 | 161 | 3.2 | 0.0 | 0.00 | 0.00 | 0.00 | 93 | 1015.2 |
| 20260506045056 | 11 | 161 | 1.6 | 0.0 | 0.00 | 0.00 | 0.00 | 92 | 1015.1 |
| 20260506044556 | 11 | 176 | 1.6 | 0.0 | 0.00 | 0.00 | 0.00 | 92 | 1015.1 |
| 20260506044056 | 11 | 175 | 1.6 | 0.0 | 0.00 | 0.00 | 0.00 | 92 | 1015.0 |
| 20260506043556 | 11 | 178 | 1.6 | 0.0 | 0.00 | 0.00 | 0.00 | 92 | 1015.0 |
| 20260506043100 | 11 | 160 | 1.6 | 0.0 | 0.00 | 0.00 | 0.00 | 92 | 1015.0 |
| 20260506042557 | 11 | 160 | 1.6 | 0.0 | 0.00 | 0.00 | 0.00 | 91 | 1014.7 |
| 20260506042057 | 12 | 160 | 1.6 | 0.0 | 0.00 | 0.00 | 0.00 | 91 | 1014.7 |
| 20260506041601 | 12 | 160 | 1.6 | 0.0 | 0.00 | 0.00 | 0.00 | 91 | 1014.7 |
| 20260506041056 | 12 | 160 | 1.6 | 0.0 | 0.00 | 0.00 | 0.00 | 90 | 1014.7 |
| 20260506040555 | 11 | 169 | 3.2 | 0.0 | 0.00 | 0.00 | 0.00 | 89 | 1014.7 |
| 20260506040055 | 11 | 177 | 3.2 | 0.0 | 0.00 | 0.00 | 0.00 | 88 | 1014.7 |
| 20260506035558 | 11 | 166 | 3.2 | 0.0 | 0.00 | 0.00 | 0.00 | 87 | 1014.5 |
| 20260506035056 | 11 | 182 | 3.2 | 0.0 | 0.00 | 0.00 | 0.00 | 86 | 1014.5 |
| 20260506034612 | 11 | 193 | 3.2 | 0.0 | 0.00 | 0.00 | 0.00 | 86 | 1014.5 |
| 20260506034056 | 11 | 179 | 3.2 | 0.0 | 0.00 | 0.00 | 0.00 | 86 | 1014.3 |
| 20260506033554 | 11 | 171 | 1.6 | 0.0 | 0.00 | 0.00 | 0.00 | 86 | 1014.3 |
| 20260506033053 | 11 | 165 | 1.6 | 0.0 | 0.00 | 0.00 | 0.00 | 88 | 1014.3 |
| 20260506032559 | 11 | 165 | 1.6 | 0.0 | 0.00 | 0.00 | 0.00 | 88 | 1014.2 |
| 20260506032058 | 11 | 165 | 1.6 | 0.0 | 0.00 | 0.00 | 0.00 | 89 | 1014.2 |
| 20260506031601 | 12 | 195 | 0.0 | 0.0 | 0.00 | 0.00 | 0.00 | 89 | 1014.2 |
| 20260506031053 | 12 | 195 | 1.6 | 0.0 | 0.00 | 0.00 | 0.00 | 90 | 1014.0 |
| 20260506030554 | 12 | 195 | 1.6 | 0.0 | 0.00 | 0.00 | 0.00 | 90 | 1014.0 |
| 20260506030052 | 12 | 195 | 1.6 | 0.0 | 0.00 | 0.00 | 0.00 | 89 | 1014.0 |
| 20260506025553 | 12 | 205 | 3.2 | 0.0 | 0.00 | 0.00 | 0.00 | 89 | 1013.6 |
| 20260506025051 | 12 | 202 | 3.2 | 0.0 | 0.00 | 0.00 | 0.00 | 89 | 1013.6 |
| 20260506024607 | 12 | 200 | 3.2 | 0.0 | 0.00 | 0.00 | 0.00 | 88 | 1013.6 |
| 20260506024052 | 12 | 183 | 3.2 | 0.0 | 0.00 | 0.00 | 0.00 | 88 | 1013.6 |
| 20260506023552 | 12 | 165 | 3.2 | 0.0 | 0.00 | 0.00 | 0.00 | 88 | 1013.6 |
| 20260506023051 | 12 | 159 | 4.8 | 0.0 | 0.00 | 0.00 | 0.00 | 87 | 1013.6 |
| 20260506022551 | 12 | 136 | 4.8 | 0.0 | 0.00 | 0.00 | 0.00 | 86 | 1013.3 |
| 20260506022051 | 12 | 169 | 4.8 | 0.0 | 0.00 | 0.00 | 0.00 | 86 | 1013.3 |
| 20260506021552 | 12 | 205 | 4.8 | 0.0 | 0.00 | 0.00 | 0.00 | 85 | 1013.3 |
| 20260506021051 | 13 | 205 | 4.8 | 0.0 | 0.00 | 0.00 | 0.00 | 85 | 1013.3 |
| 20260506020552 | 13 | 179 | 4.8 | 0.0 | 0.00 | 0.00 | 0.00 | 85 | 1013.3 |
| 20260506020051 | 13 | 182 | 4.8 | 0.0 | 0.00 | 0.00 | 0.00 | 85 | 1013.3 |
| 20260506015551 | 13 | 182 | 3.2 | 0.0 | 0.00 | 0.00 | 0.00 | 86 | 1013.1 |
| 20260506015050 | 13 | 156 | 4.8 | 0.0 | 0.00 | 0.00 | 0.00 | 85 | 1013.1 |
| 20260506014551 | 13 | 169 | 4.8 | 0.0 | 0.00 | 0.00 | 0.00 | 85 | 1013.1 |
| 20260506014049 | 13 | 217 | 3.2 | 0.0 | 0.00 | 0.00 | 0.00 | 84 | 1013.0 |
| 20260506013553 | 13 | 182 | 3.2 | 0.0 | 0.00 | 0.00 | 0.00 | 83 | 1013.0 |
| 20260506013103 | 13 | 180 | 4.8 | 0.0 | 0.00 | 0.00 | 0.00 | 82 | 1013.0 |
| 20260506012550 | 14 | 221 | 4.8 | 0.0 | 0.00 | 0.00 | 0.00 | 81 | 1013.0 |
| 20260506012050 | 14 | 211 | 4.8 | 0.0 | 0.00 | 0.00 | 0.00 | 80 | 1013.0 |
| 20260506011604 | 15 | 215 | 4.8 | 0.0 | 0.00 | 0.00 | 0.00 | 79 | 1013.0 |
| 20260506011049 | 15 | 171 | 6.4 | 0.0 | 0.00 | 0.00 | 0.00 | 79 | 1013.0 |
| 20260506010549 | 15 | 213 | 4.8 | 0.0 | 0.00 | 0.00 | 0.00 | 76 | 1013.0 |
| 20260506010050 | 15 | 218 | 4.8 | 0.0 | 0.00 | 0.00 | 0.00 | 77 | 1013.0 |
| 20260506005549 | 15 | 187 | 6.4 | 0.0 | 0.00 | 0.00 | 0.00 | 76 | 1013.0 |
| 20260506005051 | 15 | 196 | 6.4 | 0.0 | 0.00 | 0.00 | 0.00 | 77 | 1013.0 |
| 20260506004548 | 14 | 205 | 6.4 | 0.0 | 0.00 | 0.00 | 0.00 | 78 | 1013.0 |
| 20260506004048 | 14 | 235 | 6.4 | 0.0 | 0.00 | 0.00 | 0.00 | 79 | 1013.1 |
| 20260506003548 | 14 | 226 | 6.4 | 0.0 | 0.00 | 0.00 | 0.00 | 79 | 1013.1 |
| 20260506003048 | 14 | 197 | 6.4 | 0.0 | 0.00 | 0.00 | 0.00 | 80 | 1013.1 |
| 20260506002547 | 14 | 255 | 6.4 | 0.0 | 0.00 | 0.00 | 0.00 | 80 | 1013.0 |
| 20260506002049 | 13 | 155 | 6.4 | 0.0 | 0.00 | 0.00 | 0.00 | 81 | 1013.0 |
| 20260506001548 | 13 | 175 | 6.4 | 0.0 | 0.00 | 0.00 | 0.00 | 82 | 1013.0 |
| 20260506001048 | 13 | 188 | 8.0 | 0.0 | 0.00 | 0.00 | 0.00 | 81 | 1013.0 |
| 20260506000548 | 13 | 181 | 8.0 | 0.0 | 0.00 | 0.00 | 0.00 | 80 | 1013.0 |
| 20260506000050 | 13 | 190 | 8.0 | 0.0 | 0.00 | 0.00 | 0.00 | 78 | 1013.0 |
| 20260505235547 | 14 | 175 | 8.0 | 0.0 | 0.00 | 0.00 | 0.00 | 78 | 1013.1 |
| 20260505235047 | 14 | 219 | 6.4 | 0.0 | 0.00 | 0.00 | 0.00 | 79 | 1013.1 |
| 20260505234546 | 14 | 207 | 8.0 | 0.0 | 0.00 | 0.00 | 0.00 | 79 | 1013.1 |
| 20260505234045 | 14 | 210 | 8.0 | 0.0 | 0.00 | 0.00 | 0.00 | 78 | 1013.0 |
| 20260505233545 | 15 | 186 | 8.0 | 0.0 | 0.00 | 0.00 | 0.00 | 76 | 1013.0 |
| 20260505233045 | 15 | 190 | 9.7 | 0.0 | 0.00 | 0.00 | 0.00 | 76 | 1013.0 |
| 20260505232545 | 15 | 186 | 8.0 | 0.0 | 0.00 | 0.00 | 0.00 | 75 | 1012.9 |
| 20260505232049 | 15 | 187 | 6.4 | 0.0 | 0.00 | 0.00 | 0.00 | 76 | 1012.9 |
| 20260505231546 | 15 | 182 | 8.0 | 0.0 | 0.00 | 0.00 | 0.00 | 77 | 1012.9 |
| 20260505231049 | 15 | 124 | 8.0 | 0.0 | 0.00 | 0.00 | 0.00 | 77 | 1012.9 |
| 20260505230545 | 15 | 180 | 6.4 | 0.0 | 0.00 | 0.00 | 0.00 | 76 | 1012.9 |
| 20260505230056 | 15 | 213 | 6.4 | 0.0 | 0.00 | 0.00 | 0.00 | 75 | 1012.9 |
| 20260505225546 | 15 | 237 | 8.0 | 0.0 | 0.00 | 0.00 | 0.00 | 77 | 1013.0 |
| 20260505225044 | 15 | 204 | 8.0 | 0.0 | 0.00 | 0.00 | 0.00 | 74 | 1013.0 |
| 20260505224547 | 15 | 258 | 8.0 | 0.0 | 0.00 | 0.00 | 0.00 | 72 | 1013.0 |
| 20260505224046 | 15 | 169 | 8.0 | 0.0 | 0.00 | 0.00 | 0.00 | 72 | 1013.2 |
| 20260505223543 | 15 | 229 | 8.0 | 0.0 | 0.00 | 0.00 | 0.00 | 72 | 1013.2 |
| 20260505223055 | 15 | 173 | 9.7 | 0.0 | 0.00 | 0.00 | 0.00 | 71 | 1013.2 |
| 20260505222543 | 15 | 242 | 8.0 | 0.0 | 0.00 | 0.00 | 0.00 | 68 | 1013.3 |
| 20260505222047 | 15 | 237 | 8.0 | 0.0 | 0.00 | 0.00 | 0.00 | 67 | 1013.3 |
| 20260505221544 | 15 | 205 | 8.0 | 0.0 | 0.00 | 0.00 | 0.00 | 67 | 1013.3 |
| 20260505221047 | 15 | 181 | 8.0 | 0.0 | 0.00 | 0.00 | 0.00 | 66 | 1013.4 |
| 20260505220542 | 15 | 181 | 8.0 | 0.0 | 0.00 | 0.00 | 0.00 | 67 | 1013.4 |
| 20260505220045 | 15 | 157 | 8.0 | 0.0 | 0.00 | 0.00 | 0.00 | 66 | 1013.4 |
| 20260505215542 | 15 | 211 | 8.0 | 0.0 | 0.00 | 0.00 | 0.00 | 67 | 1013.4 |
| 20260505215042 | 16 | 153 | 6.4 | 0.0 | 0.00 | 0.00 | 0.00 | 69 | 1013.4 |
| 20260505214542 | 16 | 119 | 6.4 | 0.0 | 0.00 | 0.00 | 0.00 | 70 | 1013.4 |
| 20260505214042 | 15 | 173 | 8.0 | 0.0 | 0.00 | 0.00 | 0.00 | 68 | 1013.5 |
| 20260505213545 | 16 | 185 | 8.0 | 0.0 | 0.00 | 0.00 | 0.00 | 68 | 1013.5 |
| 20260505213053 | 16 | 188 | 6.4 | 0.0 | 0.00 | 0.00 | 0.00 | 67 | 1013.5 |
| 20260505212541 | 16 | 212 | 4.8 | 0.0 | 0.00 | 0.00 | 0.00 | 70 | 1013.6 |
| 20260505212041 | 15 | 223 | 6.4 | 0.0 | 0.00 | 0.00 | 0.00 | 69 | 1013.6 |
| 20260505211541 | 15 | 208 | 8.0 | 0.0 | 0.00 | 0.00 | 0.00 | 70 | 1013.6 |
| 20260505211041 | 15 | 155 | 8.0 | 0.0 | 0.00 | 0.00 | 0.00 | 69 | 1013.5 |
| 20260505210540 | 15 | 191 | 8.0 | 0.0 | 0.00 | 0.00 | 0.00 | 66 | 1013.5 |
| 20260505210040 | 16 | 163 | 6.4 | 0.0 | 0.00 | 0.00 | 0.00 | 67 | 1013.5 |
| 20260505205540 | 15 | 200 | 6.4 | 0.0 | 0.00 | 0.00 | 0.00 | 66 | 1013.5 |
| 20260505205039 | 15 | 173 | 6.4 | 0.0 | 0.00 | 0.00 | 0.00 | 67 | 1013.5 |
| 20260505204540 | 15 | 160 | 8.0 | 0.0 | 0.00 | 0.00 | 0.00 | 67 | 1013.5 |
| 20260505204039 | 15 | 186 | 8.0 | 0.0 | 0.00 | 0.00 | 0.00 | 70 | 1013.5 |
| 20260505203539 | 15 | 153 | 8.0 | 0.0 | 0.00 | 0.00 | 0.00 | 67 | 1013.5 |
| 20260505203046 | 15 | 202 | 6.4 | 0.0 | 0.00 | 0.00 | 0.00 | 68 | 1013.5 |
| 20260505202539 | 15 | 192 | 6.4 | 0.0 | 0.00 | 0.00 | 0.00 | 67 | 1013.5 |
| 20260505202039 | 15 | 241 | 8.0 | 0.0 | 0.00 | 0.00 | 0.00 | 69 | 1013.5 |
| 20260505201541 | 15 | 163 | 8.0 | 0.0 | 0.00 | 0.00 | 0.00 | 67 | 1013.5 |
| 20260505201039 | 15 | 207 | 6.4 | 0.0 | 0.00 | 0.00 | 0.00 | 68 | 1013.5 |
| 20260505200539 | 15 | 210 | 8.0 | 0.0 | 0.00 | 0.00 | 0.00 | 68 | 1013.5 |
| 20260505200037 | 15 | 163 | 8.0 | 0.0 | 0.00 | 0.00 | 0.00 | 65 | 1013.5 |
| 20260505195540 | 15 | 226 | 8.0 | 0.0 | 0.00 | 0.00 | 0.00 | 68 | 1013.5 |
| 20260505195038 | 15 | 231 | 6.4 | 0.0 | 0.00 | 0.00 | 0.00 | 67 | 1013.5 |
| 20260505194536 | 15 | 259 | 6.4 | 0.0 | 0.00 | 0.00 | 0.00 | 69 | 1013.5 |
| 20260505194036 | 15 | 193 | 6.4 | 0.0 | 0.00 | 0.00 | 0.00 | 68 | 1013.7 |
| 20260505193536 | 15 | 360 | 6.4 | 0.0 | 0.00 | 0.00 | 0.00 | 69 | 1013.7 |
| 20260505193034 | 15 | 233 | 8.0 | 0.0 | 0.00 | 0.00 | 0.00 | 69 | 1013.7 |
| 20260505192534 | 15 | 184 | 8.0 | 0.0 | 0.00 | 0.00 | 0.00 | 72 | 1013.8 |
| 20260505192033 | 15 | 196 | 6.4 | 0.0 | 0.00 | 0.00 | 0.00 | 72 | 1013.8 |
| 20260505191533 | 15 | 187 | 6.4 | 0.0 | 0.00 | 0.00 | 0.00 | 74 | 1013.8 |
| 20260505191033 | 15 | 198 | 8.0 | 0.0 | 0.00 | 0.00 | 0.00 | 75 | 1013.9 |
| 20260505190534 | 15 | 213 | 8.0 | 0.0 | 0.00 | 0.00 | 0.00 | 76 | 1013.9 |
| 20260505190030 | 15 | 144 | 8.0 | 0.0 | 0.00 | 0.00 | 0.00 | 75 | 1013.9 |
| 20260505185531 | 15 | 208 | 8.0 | 0.0 | 0.00 | 0.00 | 0.00 | 75 | 1013.9 |
| 20260505185031 | 15 | 182 | 8.0 | 0.0 | 0.00 | 0.00 | 0.00 | 75 | 1013.9 |
| 20260505184530 | 15 | 163 | 9.7 | 0.0 | 0.00 | 0.00 | 0.00 | 73 | 1013.9 |
| 20260505184029 | 14 | 261 | 8.0 | 0.0 | 0.00 | 0.00 | 0.00 | 70 | 1013.9 |
| 20260505183528 | 14 | 201 | 8.0 | 0.0 | 0.00 | 0.00 | 0.00 | 76 | 1013.9 |
| 20260505183028 | 14 | 211 | 8.0 | 0.0 | 0.00 | 0.00 | 0.00 | 75 | 1013.9 |
| 20260505182527 | 14 | 205 | 6.4 | 0.0 | 0.00 | 0.00 | 0.00 | 76 | 1013.7 |
| 20260505182033 | 14 | 266 | 6.4 | 0.0 | 0.00 | 0.00 | 0.00 | 73 | 1013.7 |
| 20260505181527 | 14 | 217 | 6.4 | 0.0 | 0.00 | 0.00 | 0.00 | 72 | 1013.7 |
| 20260505181027 | 14 | 171 | 6.4 | 0.0 | 0.00 | 0.00 | 0.00 | 74 | 1013.7 |
| 20260505180525 | 14 | 281 | 6.4 | 0.0 | 0.00 | 0.00 | 0.00 | 74 | 1013.7 |
| 20260505180024 | 13 | 224 | 6.4 | 0.0 | 0.00 | 0.00 | 0.00 | 78 | 1013.7 |
| 20260505175523 | 13 | 206 | 6.4 | 0.0 | 0.00 | 0.00 | 0.00 | 79 | 1013.6 |
| 20260505175023 | 13 | 158 | 6.4 | 0.0 | 0.00 | 0.00 | 0.00 | 80 | 1013.6 |
| 20260505174522 | 13 | 177 | 4.8 | 0.0 | 0.00 | 0.00 | 0.00 | 80 | 1013.6 |
| 20260505174022 | 13 | 263 | 4.8 | 0.0 | 0.00 | 0.00 | 0.00 | 81 | 1013.5 |
| 20260505173520 | 13 | 148 | 4.8 | 0.0 | 0.00 | 0.00 | 0.00 | 80 | 1013.5 |
| 20260505173036 | 13 | 292 | 4.8 | 0.0 | 0.00 | 0.00 | 0.00 | 82 | 1013.5 |
| 20260505172520 | 13 | 244 | 4.8 | 0.0 | 0.00 | 0.00 | 0.00 | 81 | 1013.3 |
| 20260505172020 | 13 | 184 | 4.8 | 0.0 | 0.00 | 0.00 | 0.00 | 80 | 1013.3 |
| 20260505171520 | 13 | 190 | 3.2 | 0.0 | 0.00 | 0.00 | 0.00 | 81 | 1013.3 |
| 20260505171018 | 13 | 176 | 4.8 | 0.0 | 0.00 | 0.00 | 0.00 | 84 | 1013.3 |
| 20260505170517 | 13 | 270 | 6.4 | 0.0 | 0.00 | 0.00 | 0.00 | 84 | 1013.3 |
| 20260505170023 | 12 | 303 | 6.4 | 0.0 | 0.00 | 0.00 | 0.00 | 86 | 1013.3 |
| 20260505165516 | 12 | 233 | 6.4 | 0.0 | 0.00 | 0.00 | 0.00 | 86 | 1013.1 |
| 20260505165016 | 13 | 306 | 4.8 | 0.0 | 0.00 | 0.00 | 0.00 | 86 | 1013.1 |
| 20260505164535 | 12 | 275 | 4.8 | 0.0 | 0.00 | 0.00 | 0.00 | 85 | 1013.1 |
| 20260505164015 | 12 | 248 | 4.8 | 0.0 | 0.00 | 0.00 | 0.00 | 87 | 1013.1 |
| 20260505163514 | 12 | 258 | 6.4 | 0.0 | 0.00 | 0.00 | 0.00 | 85 | 1013.1 |
| 20260505163015 | 12 | 217 | 6.4 | 0.0 | 0.00 | 0.00 | 0.00 | 85 | 1013.1 |
| 20260505162514 | 12 | 281 | 4.8 | 0.0 | 0.00 | 0.00 | 0.00 | 84 | 1012.7 |
| 20260505162014 | 12 | 213 | 4.8 | 0.0 | 0.00 | 0.00 | 0.00 | 84 | 1012.7 |
| 20260505161513 | 12 | 184 | 4.8 | 0.0 | 0.00 | 0.00 | 0.00 | 86 | 1012.7 |
| 20260505161014 | 12 | 207 | 4.8 | 0.0 | 0.00 | 0.00 | 0.00 | 87 | 1012.6 |
| 20260505160511 | 12 | 252 | 3.2 | 0.0 | 0.00 | 0.00 | 0.00 | 88 | 1012.6 |
| 20260505153010 | 11 | 284 | 6.4 | 0.0 | 0.00 | 0.00 | 0.00 | 90 | 1012.7 |
| 20260505152505 | 11 | 274 | 6.4 | 0.0 | 0.00 | 0.00 | 0.00 | 91 | 1012.7 |
| 20260505152007 | 11 | 254 | 8.0 | 0.0 | 0.00 | 0.00 | 0.00 | 91 | 1012.7 |
| 20260505151504 | 11 | 243 | 8.0 | 0.0 | 0.00 | 0.00 | 0.00 | 91 | 1012.7 |
| 20260505151004 | 11 | 279 | 6.4 | 0.0 | 0.00 | 0.00 | 0.00 | 91 | 1012.6 |
| 20260505150504 | 11 | 225 | 4.8 | 0.0 | 0.00 | 0.00 | 0.00 | 92 | 1012.6 |
| 20260505140502 | 10 | 309 | 4.8 | 0.0 | 0.00 | 0.00 | 0.00 | 93 | 1012.2 |
| 20260505124558 | 10 | 252 | 4.8 | 0.0 | 0.00 | 0.00 | 0.00 | 93 | 1012.0 |
| 20260505124058 | 10 | 297 | 4.8 | 0.0 | 0.00 | 0.00 | 0.00 | 93 | 1012.0 |
| 20260505123556 | 10 | 329 | 4.8 | 0.0 | 0.00 | 0.00 | 0.00 | 93 | 1012.0 |
| 20260505123105 | 10 | 239 | 6.4 | 0.0 | 0.00 | 0.00 | 0.00 | 93 | 1012.0 |
| 20260505122559 | 10 | 246 | 6.4 | 0.0 | 0.00 | 0.00 | 0.00 | 94 | 1012.0 |
| 20260505122056 | 10 | 285 | 6.4 | 0.0 | 0.00 | 0.00 | 0.00 | 94 | 1012.0 |
| 20260505121556 | 10 | 257 | 6.4 | 0.0 | 0.00 | 0.00 | 0.00 | 94 | 1012.0 |
| 20260505121056 | 10 | 271 | 6.4 | 0.0 | 0.00 | 0.00 | 0.00 | 94 | 1012.0 |
| 20260505120556 | 10 | 270 | 6.4 | 0.0 | 0.00 | 0.00 | 0.00 | 94 | 1012.0 |